Jonestown, PA

5:58 PM EST on February 21, 2017 (GMT -0500)
Muir Army Air Field

Weather History for KMUI - February, 2013

Change the Weather History Date:

Saturday, February 16, 2013

  Actual Average Record
Temperature  
Mean Temperature 31 °F -  
Max Temperature 34 °F 41 °F 59 °F (1999)
Min Temperature 28 °F 26 °F -2 °F (2015)
Degree Days  
Heating Degree Days 34    
Moisture  
Dew Point 26 °F    
Average Humidity 86    
Maximum Humidity 100    
Minimum Humidity 44    
Precipitation  
Precipitation 0.00 in - - ()
Sea Level Pressure  
Sea Level Pressure 29.96 in    
Wind  
Wind Speed 2 mph (North)    
Max Wind Speed 9 mph    
Max Gust Speed -    
Visibility 5 miles    
Events Fog    
Averages and records for this station are not official NWS values.
T = Trace of Precipitation, MM = Missing Value Source: NWS Daily Summary

Daily Weather History Graph

Daily Weather History Graph

Search for Another Location

Airport or City:

Trip Planner

Search our weather history database for the weather conditions in past years. The results will help you decide how hot, cold, wet, or windy it might be!

Date:

Astronomy

Feb. 16, 2013 Rise Set
Actual Time 6:58 AM EST 5:43 PM EST
Civil Twilight 6:30 AM EST 6:10 PM EST
Nautical Twilight 5:58 AM EST 6:42 PM EST
Astronomical Twilight 5:26 AM EST 7:14 PM EST
Moon 10:08 AM EST (2/16) No Moon Set
Length of Visible Light 11h 40m
Length of Day
10h 44m
Waxing Crescent, 39% of the Moon is Illuminated
Feb 16
Waxing Crescent
Feb 17
First Quarter
Feb 25
Full
Mar 4
Last Quarter
Mar 11
New

Hourly Weather History & Observations

Time (EST) Temp. Windchill Dew Point Humidity Pressure Visibility Wind Dir Wind Speed Gust Speed Precip Events Conditions
12:21 AM 33.8 °F - 33.8 °F 100% 30.00 in 2.5 mi Calm Calm - N/A   Overcast
12:27 AM 33.8 °F - 33.8 °F 100% 30.00 in 1.8 mi Calm Calm - N/A   Overcast
12:30 AM 33.8 °F - 33.8 °F 100% 30.00 in 1.5 mi Calm Calm - N/A   Overcast
12:35 AM 33.8 °F 30.8 °F 33.8 °F 100% 30.00 in 1.2 mi SSW 3.5 mph - N/A   Overcast
12:39 AM 33.8 °F - 33.8 °F 100% 30.00 in 1.0 mi Calm Calm - N/A   Mist
12:42 AM 33.8 °F - 33.8 °F 100% 30.00 in 0.8 mi Calm Calm - N/A   Mist
12:45 AM 33.8 °F - 33.8 °F 100% 30.00 in 0.5 mi Calm Calm - N/A Fog Fog
12:55 AM 32.9 °F - 32.9 °F 100% 30.00 in 0.5 mi Calm Calm - N/A Fog Fog
1:10 AM 32.0 °F - 32.0 °F 100% 30.00 in 0.2 mi Calm Calm - N/A Fog Fog
1:55 AM 31.8 °F - 31.8 °F 100% 29.99 in 0.2 mi Calm Calm - N/A Fog Light Freezing Fog
2:55 AM 29.7 °F - 29.7 °F 100% 29.98 in 0.2 mi Calm Calm - N/A Fog Light Freezing Fog
3:31 AM 28.4 °F 24.6 °F 28.4 °F 100% 29.97 in 0.2 mi SE 3.5 mph - N/A Fog Light Freezing Drizzle
3:55 AM 28.9 °F - 28.9 °F 100% 29.97 in 0.2 mi Calm Calm - 0.00 in Fog Light Freezing Drizzle
3:56 AM 28.4 °F - 28.4 °F 100% 29.97 in 0.2 mi Calm Calm - N/A Fog Light Freezing Fog
4:10 AM 28.4 °F - 28.4 °F 100% 29.97 in 0.2 mi Calm Calm - N/A Fog Light Freezing Fog
4:15 AM 28.4 °F - 28.4 °F 100% 29.97 in 0.5 mi Calm Calm - N/A Fog Light Freezing Fog
4:22 AM 28.4 °F - 28.4 °F 100% 29.98 in 0.8 mi Calm Calm - N/A   Scattered Clouds
4:25 AM 28.4 °F 24.6 °F 28.4 °F 100% 29.97 in 1.0 mi WSW 3.5 mph - N/A   Mostly Cloudy
4:27 AM 28.4 °F - 28.4 °F 100% 29.97 in 1.2 mi Calm Calm - N/A   Mostly Cloudy
4:28 AM 28.4 °F - 28.4 °F 100% 29.97 in 1.5 mi Calm Calm - N/A   Mostly Cloudy
4:29 AM 28.4 °F - 28.4 °F 100% 29.97 in 2.0 mi Calm Calm - N/A   Mostly Cloudy
4:31 AM 28.4 °F - 28.4 °F 100% 29.97 in 3.0 mi Calm Calm - N/A   Mostly Cloudy
4:40 AM 28.4 °F - 28.4 °F 100% 29.97 in 2.5 mi Calm Calm - N/A   Overcast
4:42 AM 28.4 °F - 28.4 °F 100% 29.98 in 1.8 mi Calm Calm - N/A   Overcast
4:43 AM 28.4 °F - 28.4 °F 100% 29.98 in 1.5 mi Calm Calm - N/A   Overcast
4:44 AM 28.4 °F - 28.4 °F 100% 29.98 in 1.2 mi Calm Calm - N/A   Overcast
4:46 AM 28.4 °F - 28.4 °F 100% 29.98 in 1.0 mi Calm Calm - N/A   Overcast
4:51 AM 28.4 °F - 28.4 °F 100% 29.98 in 1.2 mi Calm Calm - N/A   Overcast
4:54 AM 30.2 °F - 30.2 °F 100% 29.98 in 1.5 mi Calm Calm - N/A   Overcast
4:55 AM 29.3 °F - 29.3 °F 100% 29.98 in 1.8 mi Calm Calm - N/A   Overcast
4:56 AM 30.2 °F - 30.2 °F 100% 29.98 in 2.0 mi Calm Calm - N/A   Overcast
5:00 AM 30.2 °F - 30.2 °F 100% 29.98 in 3.0 mi Calm Calm - N/A   Overcast
5:55 AM 29.3 °F - 29.1 °F 99% 29.98 in 9.0 mi Calm Calm - N/A   Partly Cloudy
6:06 AM 30.2 °F - 30.2 °F 100% 29.98 in 10.0 mi Calm Calm - N/A   Mostly Cloudy
6:08 AM 30.2 °F - 30.2 °F 100% 29.98 in 10.0 mi Calm Calm - N/A   Mostly Cloudy
6:55 AM 30.9 °F 22.8 °F 30.6 °F 99% 29.98 in 10.0 mi North 9.2 mph - N/A   Overcast
7:55 AM 31.3 °F 24.7 °F 28.8 °F 90% 29.99 in 10.0 mi NNW 6.9 mph - N/A   Overcast
8:55 AM 31.6 °F 26.0 °F 28.0 °F 87% 29.99 in 10.0 mi North 5.8 mph - N/A   Overcast
9:55 AM 31.8 °F 25.4 °F 27.3 °F 83% 29.99 in 10.0 mi Variable 6.9 mph - N/A   Overcast
10:01 AM 32.0 °F 26.4 °F 26.6 °F 80% 29.99 in 10.0 mi NE 5.8 mph - N/A   Overcast
10:19 AM 32.0 °F 27.5 °F 26.6 °F 80% 29.98 in 10.0 mi Variable 4.6 mph - N/A   Overcast
10:26 AM 32.0 °F 26.4 °F 28.4 °F 87% 29.98 in 10.0 mi Variable 5.8 mph - N/A   Overcast
10:28 AM 32.0 °F 25.6 °F 28.4 °F 87% 29.98 in 10.0 mi NNE 6.9 mph - N/A   Overcast
10:31 AM 32.0 °F 24.8 °F 26.6 °F 80% 29.98 in 10.0 mi North 8.1 mph - N/A   Overcast
10:55 AM 33.1 °F 28.7 °F 25.5 °F 74% 29.98 in 10.0 mi North 4.6 mph - N/A   Mostly Cloudy
11:49 AM 33.8 °F 27.0 °F 24.8 °F 70% 29.96 in 10.0 mi North 8.1 mph - N/A   Mostly Cloudy
11:55 AM 33.6 °F 30.6 °F 24.6 °F 70% 29.96 in 10.0 mi Variable 3.5 mph - N/A   Mostly Cloudy
12:54 PM 33.8 °F 27.0 °F 21.2 °F 60% 29.94 in 10.0 mi NNW 8.1 mph - N/A   Overcast
12:55 PM 33.3 °F 25.7 °F 21.9 °F 63% 29.94 in 10.0 mi North 9.2 mph - N/A   Overcast
1:55 PM 34.7 °F 29.6 °F 20.5 °F 56% 29.91 in 10.0 mi Variable 5.8 mph - N/A   Overcast
2:55 PM 33.4 °F 27.3 °F 19.6 °F 57% 29.91 in 10.0 mi WNW 6.9 mph - N/A   Mostly Cloudy
3:55 PM 32.9 °F 27.5 °F 16.7 °F 51% 29.90 in 10.0 mi Variable 5.8 mph - N/A   Clear
4:55 PM 32.4 °F 29.1 °F 16.0 °F 51% 29.91 in 10.0 mi North 3.5 mph - N/A   Clear
5:55 PM 31.5 °F 25.8 °F 16.3 °F 54% 29.91 in 10.0 mi NE 5.8 mph - N/A   Clear
6:55 PM 31.8 °F - 14.2 °F 48% 29.90 in 10.0 mi Calm Calm - N/A   Clear
7:55 PM 31.3 °F 27.9 °F 13.8 °F 49% 29.88 in 10.0 mi NW 3.5 mph - N/A   Clear
8:55 PM 30.7 °F 24.9 °F 11.8 °F 46% 29.88 in 10.0 mi Variable 5.8 mph - N/A   Clear
9:55 PM 30.0 °F 24.1 °F 10.4 °F 44% 29.87 in 10.0 mi North 5.8 mph - N/A   Clear
10:55 PM 29.1 °F 22.1 °F 11.7 °F 48% 29.86 in 10.0 mi NNE 6.9 mph - N/A   Clear
11:55 PM 28.0 °F 20.0 °F 11.3 °F 50% 29.85 in 10.0 mi North 8.1 mph - N/A   Clear